sat.trackr.live / text

‹ back to catalog

STARLINK-36123

NORAD 67007 · 2025-293E

PAYLOAD ACTIVE UNKNOWN

§ Identity

Operator
Country
US
Launch date
2025-12-10
Launch site
AFWTR
Launch vehicle
Mass (kg)
RCS (m²)

Purposes: comms

External: N2YO · Heavens-Above · Gunter

§ Orbital elements

Epoch: 2026-05-24T16:25:38.942400Z

Period
96.11 min
Inclination
70.0006°
Eccentricity
0.0002912
Mean motion
14.98338254 rev/d
Perigee alt
570.0 km
Apogee alt
574.1 km
Semi-major
6,950.2 km
B*
2.3155e-4
RAAN
262.7417°
Arg perigee
271.0044°
Mean anomaly
89.0782°
Rev number
2,627

§ Raw data

STARLINK-361231 67007U 25293E   26144.68447850  .00002671  00000+0  23155-3 0  99942 67007  70.0006 262.7417 0002912 271.0044  89.0782 14.98338254 26274

JSON: /api/v1/satellites/67007 · /tle

For live sub-satellite position, see the globe view (requires WebGL).

§ Visibility from observer

Set your observer location to see the next 7 days of passes ≥ 10°. The values pass through the URL so the page stays shareable.

No JS? Fill the form by hand. The geolocation button needs JavaScript.